Dewpoint
56 53 45 42 46 48 47 50 53 53 53 55 54 55 55 57 53 51 64 66 67 69 69 69 69 70 70 70 70 69 69 70 69 70 69 69 69 68 67 69 69 68 68 67 66 67 67 66 67
57 47 44 47 44 44 45 50 50 54 56 56 56 55 55 54 59 59 63 66 67 68 69 69 69 69 69 69 70 69 69 70 70 69 69 68 68 69 68 68 69 69 68 67 67 67 67 66 65
48 42 48 47 45 44 46 50 52 55 57 55 55 56 55 53 59 61 65 66 68 68 69 69 68 69 69 69 69 69 69 69 69 69 68 67 67 67 67 67 69 68 67 67 67 66 65 64 64
34 38 40 42 42 47 48 50 50 53 55 58 56 54 56 55 61 63 66 66 66 67 68 68 68 68 68 68 68 68 69 68 68 68 67 67 67 67 67 68 69 68 67 67 66 65 64 63 64
31 39 38 37 40 47 51 51 51 50 55 56 55 52 52 54 55 58 61 62 62 63 64 66 67 67 67 67 67 68 68 68 68 68 67 67 67 67 67 67 68 68 67 66 66 64 64 63 65
30 37 36 34 36 42 44 53 52 53 51 52 53 51 51 54 53 55 54 51 54 55 57 60 64 66 66 66 66 66 67 68 68 68 67 67 66 65 65 66 66 66 66 65 64 64 64 63 63
36 34 28 32 35 37 37 42 43 44 45 47 53 49 51 51 51 52 51 50 49 51 53 54 57 62 64 66 66 66 66 67 67 67 67 67 67 65 64 64 66 65 65 64 64 63 63 62 62
28 28 26 26 31 34 37 41 44 44 45 50 52 48 47 49 49 47 46 47 47 46 48 51 53 55 60 61 64 66 66 65 65 67 67 67 67 66 64 63 65 65 65 64 64 63 63 63 62
27 25 25 25 26 31 36 37 40 44 44 45 47 47 47 45 46 46 43 43 44 46 46 50 50 53 55 59 62 64 67 66 65 64 64 66 65 65 65 64 63 64 65 64 64 63 63 63 62
24 23 23 25 27 29 30 31 32 36 39 40 41 42 42 44 43 42 43 41 41 44 45 46 48 50 53 57 61 63 64 66 65 63 64 63 63 64 65 65 65 63 64 64 64 64 63 62 60
23 22 25 26 28 30 30 31 31 32 34 37 38 38 39 39 41 39 39 38 38 40 40 42 44 47 50 54 58 60 60 60 60 61 62 64 62 61 61 62 63 63 62 63 63 62 61 60 59
22 22 23 23 27 29 29 31 32 33 34 36 37 36 36 36 37 37 36 35 35 35 38 40 43 45 48 52 55 58 58 58 58 59 60 61 62 62 64 63 62 62 62 61 61 61 61 60 59
21 22 26 27 27 28 30 30 31 32 34 35 35 35 35 35 35 35 36 36 35 35 37 38 41 43 46 48 51 55 56 56 56 57 58 59 60 61 62 64 63 61 61 61 60 60 60 60 59
21 23 24 26 25 26 26 26 29 30 32 32 33 34 34 35 34 34 35 34 35 36 37 37 39 42 44 45 47 49 53 55 54 53 54 57 57 58 60 61 63 64 63 61 60 60 60 60 60
19 19 19 19 22 24 24 24 27 29 30 30 31 33 34 35 36 36 35 35 35 35 37 37 37 40 41 43 45 46 48 50 51 52 52 52 55 55 56 57 58 59 63 63 61 60 60 60 61
14 10 16 19 16 20 22 23 25 28 28 29 30 32 33 34 36 37 37 36 35 35 36 37 38 37 39 41 43 44 45 47 49 49 50 50 51 51 54 53 55 57 60 63 63 62 60 60 60
3 4 16 15 16 18 21 21 24 25 28 28 29 30 32 34 35 36 37 37 36 36 36 36 37 37 37 38 40 42 43 44 46 48 48 49 49 49 51 50 51 55 57 58 59 62 62 61 60
1 7 12 12 16 18 20 20 23 24 26 26 27 27 29 31 33 35 36 36 36 36 36 36 37 37 36 37 38 39 41 42 44 44 46 47 48 48 49 48 48 51 54 55 56 55 60 61 61
5 7 13 17 19 18 19 21 22 23 24 24 25 25 27 28 31 34 34 35 35 35 35 36 36 37 36 36 36 37 37 40 41 43 44 46 46 47 47 47 47 49 52 53 53 54 55 59 59
11 12 15 17 20 19 20 20 21 22 23 23 24 24 25 23 27 33 34 34 35 35 35 35 36 36 36 36 37 37 38 39 40 41 42 44 45 46 46 46 47 49 49 49 50 50 50 53 55
4 13 13 16 21 21 19 18 20 21 20 22 22 22 21 20 20 29 33 33 35 35 34 35 36 36 36 36 35 36 38 38 39 40 41 42 44 44 45 46 46 48 48 48 49 49 49 47 49
3 4 10 18 17 14 20 9 19 20 19 20 21 19 19 19 21 26 32 33 34 35 36 36 36 36 37 36 34 34 35 34 37 39 40 41 42 43 44 45 45 46 47 44 46 46 46 46 45
1 8 11 11 8 13 19 16 12 20 17 19 19 18 18 20 24 26 31 32 34 35 35 35 36 35 36 35 35 34 33 36 37 38 38 39 40 41 42 44 44 44 46 44 43 44 43 42 44
12 16 17 17 13 3 10 16 9 18 18 16 17 17 19 21 25 28 30 33 33 35 35 35 35 35 35 36 35 35 33 34 33 35 35 37 38 39 42 42 43 43 45 43 42 42 40 39 41
23 13 4 2 1 -2 12 16 12 16 18 16 16 18 21 22 23 25 28 28 28 31 33 34 34 33 35 35 35 35 35 35 33 34 35 35 36 37 39 41 42 43 44 42 41 40 39 38 39
20 21 3 -13 -1 9 16 9 11 18 18 16 17 20 22 23 25 26 26 28 27 28 32 33 35 34 34 34 34 35 36 35 35 35 36 36 36 36 39 40 40 41 43 42 41 39 38 37 37
16 18 23 18 19 12 11 11 15 16 17 17 18 21 22 24 25 25 27 29 28 28 29 33 33 34 34 34 35 34 35 36 35 34 36 36 36 36 37 39 39 38 42 43 41 38 37 36 35
18 21 11 10 -13 -11 1 11 7 12 14 17 19 20 22 24 25 25 25 28 30 29 28 30 33 33 34 34 35 34 34 35 36 36 34 35 35 35 35 38 39 36 39 42 40 38 37 35 35
18 18 18 15 13 -6 -6 -3 16 14 15 16 19 21 22 24 25 25 25 25 27 29 29 28 30 32 34 34 35 35 34 35 36 36 34 34 35 34 34 36 38 36 36 40 40 37 36 34 34
16 15 18 1 1 19 16 1 16 15 16 18 19 21 22 24 25 25 25 25 25 26 26 27 28 29 32 35 35 35 34 34 35 35 35 35 34 35 34 35 37 36 35 38 39 37 35 34 32
Wind_Speed
16 12 4 6 8 14 10 10 15 14 7 18 19 26 23 18 11 10 8 12 15 14 13 13 14 15 15 14 14 15 14 14 14 13 14 13 14 15 18 18 17 17 18 18 19 19 20 21 19
7 3 5 7 12 16 10 11 17 16 9 9 17 11 16 18 13 7 9 12 18 14 13 13 17 16 15 14 14 13 13 13 12 12 12 11 12 13 14 17 17 16 18 18 17 17 16 13 13
4 2 10 8 7 11 9 12 20 13 18 11 6 11 7 11 16 5 13 14 19 14 13 15 17 15 14 14 13 13 12 13 12 11 11 12 11 12 14 15 16 16 16 15 16 15 13 11 11
0 9 11 22 23 14 14 11 24 12 9 13 6 10 7 22 4 13 15 17 15 16 15 18 18 16 14 13 12 12 11 11 10 10 11 12 13 13 12 13 13 14 13 13 13 13 11 11 11
8 9 15 17 17 11 16 15 31 10 5 14 11 8 8 19 20 21 19 20 17 16 17 17 19 17 15 13 12 12 11 11 9 9 9 10 10 10 10 10 9 11 11 10 10 11 10 12 14
10 8 14 21 12 14 12 14 10 10 13 12 13 7 7 14 23 18 18 19 17 18 19 18 19 17 16 14 13 12 11 11 9 8 8 7 7 8 8 7 6 6 8 8 8 8 10 12 16
24 17 15 19 17 12 7 9 18 16 13 15 7 6 4 22 15 13 18 20 20 22 23 20 18 16 17 15 13 11 11 10 10 9 7 6 5 5 6 5 3 3 3 3 5 6 8 8 11
8 9 7 7 8 10 4 9 20 11 14 4 8 8 7 16 15 13 19 21 24 25 24 21 19 17 15 15 17 13 10 9 8 8 8 8 7 6 5 6 6 4 2 1 1 3 4 5 5
4 13 17 5 6 11 12 22 20 20 31 31 16 22 13 16 17 20 21 25 23 24 24 21 20 19 17 14 15 15 15 14 10 8 7 6 6 8 9 9 7 5 6 6 5 2 2 2 3
9 11 7 9 16 23 20 20 14 15 26 23 22 20 16 20 22 23 22 22 23 24 20 19 18 19 18 16 15 14 15 12 15 15 13 7 6 6 7 9 10 10 8 7 7 8 6 1 2
6 16 24 20 24 28 29 27 4 17 24 16 16 17 17 17 17 17 19 18 19 17 19 19 18 17 18 16 14 15 14 14 14 16 16 12 8 8 8 8 9 7 9 9 9 7 6 6 4
34 21 15 9 10 17 22 15 29 25 17 14 16 14 16 17 16 16 17 17 18 19 17 18 18 17 17 13 16 14 15 15 15 16 18 14 12 13 13 10 9 7 7 9 9 10 10 7 6
31 21 21 24 23 25 29 26 22 22 16 15 15 15 16 15 15 14 13 13 15 19 18 18 18 18 15 17 15 15 17 16 16 17 18 16 15 13 12 11 12 9 7 9 12 11 10 12 10
14 29 26 23 22 10 26 10 7 5 10 17 18 17 14 14 12 13 16 17 18 17 17 15 19 18 17 18 17 16 14 15 16 17 19 18 16 15 15 15 14 12 12 11 11 14 12 12 10
23 36 19 5 8 17 13 17 12 7 10 18 15 13 13 12 13 14 12 16 16 16 16 17 16 17 19 17 16 15 15 15 16 16 18 19 18 17 16 14 15 16 16 14 13 13 11 13 9
15 6 8 9 2 6 6 7 4 4 13 14 11 9 10 8 8 9 11 12 13 15 18 17 15 18 18 18 16 14 16 14 14 14 15 18 18 18 15 15 15 15 14 12 11 11 12 10 12
8 7 15 4 2 4 6 11 12 4 7 13 9 8 7 5 6 7 9 9 10 11 15 18 17 16 15 16 16 17 16 16 15 14 15 17 17 18 14 14 15 15 13 14 16 9 7 10 13
6 10 5 3 2 8 9 8 15 7 5 15 10 7 7 5 4 3 6 7 6 9 11 14 14 15 13 12 13 14 14 15 14 14 16 17 16 17 15 15 16 15 14 15 15 15 12 7 6
13 12 10 3 5 7 5 18 16 9 7 12 8 7 5 3 3 2 4 5 5 8 11 11 13 12 14 11 8 9 13 15 14 14 16 16 16 16 16 15 16 16 15 16 17 11 15 8 16
15 20 9 5 6 6 11 11 9 10 9 11 14 10 7 3 4 4 3 3 4 3 4 7 9 12 13 11 7 5 5 6 8 12 15 16 16 16 16 16 15 16 14 16 17 17 12 7 13
6 15 12 8 7 10 9 2 9 9 7 6 7 7 7 11 8 8 6 4 3 3 2 1 5 7 9 9 9 7 4 3 9 13 14 14 15 16 15 16 15 14 13 14 13 15 14 12 7
5 2 9 16 5 3 2 5 14 16 14 12 12 8 10 11 7 9 9 6 4 2 0 1 1 3 4 5 10 12 11 12 8 8 10 15 16 16 15 15 15 14 11 14 13 13 12 11 12
5 6 10 7 5 4 7 2 4 14 19 21 17 12 12 10 8 10 10 6 5 3 2 3 3 1 1 3 5 7 8 4 4 6 11 13 14 14 15 14 14 13 10 12 13 13 13 10 7
11 11 10 6 3 4 9 12 6 11 26 19 15 15 16 12 9 8 8 6 7 7 5 5 7 5 3 2 0 2 4 5 8 8 10 10 10 10 12 13 12 13 12 12 12 11 12 12 9
4 7 2 1 3 7 3 9 14 7 11 20 26 21 17 13 12 10 12 10 8 7 9 8 9 9 7 6 5 4 2 2 4 6 7 9 10 8 12 11 10 9 10 11 12 12 12 13 11
3 2 4 4 4 2 3 8 5 6 8 10 21 22 16 14 13 13 12 10 8 9 11 12 13 12 10 10 10 7 7 6 5 5 5 6 6 7 8 9 9 10 8 9 10 10 11 13 12
3 4 2 5 2 2 4 5 5 2 3 11 19 18 18 15 14 14 12 12 12 12 14 15 14 14 12 14 11 11 10 10 9 8 7 7 7 6 6 6 8 9 7 5 7 9 11 11 11
3 6 2 2 3 5 5 6 8 6 9 13 19 20 16 13 14 15 15 16 16 16 16 13 13 17 16 15 14 13 13 13 12 10 11 9 9 7 7 6 5 7 6 5 4 5 6 9 11
5 3 5 4 2 3 4 5 4 11 15 21 20 18 18 17 18 18 18 16 15 15 16 16 15 15 18 17 16 15 15 15 14 14 14 13 11 10 9 7 6 6 7 5 3 4 5 7 8
2 3 6 4 4 2 2 8 6 9 14 15 15 12 12 14 16 12 12 13 15 15 16 16 18 18 20 14 14 17 17 17 16 18 18 15 16 13 13 11 10 9 8 7 6 5 4 4 7
Wind_Direction
316 311 170 51 72 67 70 58 62 46 56 50 70 69 71 51 47 90 84 67 73 59 55 58 56 53 54 57 59 60 59 65 67 61 67 72 75 76 77 77 75 76 84 90 91 90 85 86 73
315 290 64 72 89 83 73 56 64 36 69 75 47 30 42 49 14 77 59 57 67 54 45 49 51 46 46 44 49 56 60 57 60 62 60 68 78 80 78 78 75 79 88 89 86 83 82 66 55
346 246 60 57 47 81 98 64 69 50 28 64 89 47 30 346 343 72 60 50 65 48 43 43 47 46 46 46 44 45 51 53 52 57 58 59 75 78 80 77 76 82 90 86 87 79 67 48 43
26 44 54 71 75 49 105 93 79 26 11 42 95 61 86 18 13 49 52 49 49 44 37 41 39 38 41 44 44 43 45 52 50 52 53 59 64 71 72 79 84 92 96 92 91 85 73 48 32
41 61 77 80 72 97 101 93 119 146 50 39 60 67 49 3 21 40 44 43 42 38 36 34 33 34 37 38 40 40 40 42 50 53 52 54 58 63 62 73 86 103 103 97 94 90 78 60 56
61 88 89 85 83 82 60 98 99 77 66 63 69 81 52 358 27 28 41 43 41 39 39 36 32 32 32 34 35 37 34 37 36 38 49 56 51 54 60 59 78 94 112 112 103 90 77 72 82
96 87 96 105 98 69 36 37 58 57 40 26 71 85 71 18 27 33 44 42 38 40 36 29 23 23 27 24 29 35 33 31 26 20 20 27 35 34 25 35 56 69 98 106 107 101 89 84 95
79 78 98 42 77 65 39 77 58 65 38 103 18 47 42 9 21 41 48 44 38 34 34 22 19 19 12 24 20 25 33 32 30 21 3 354 351 347 360 7 349 334 330 359 58 71 73 85 100
55 82 80 112 74 113 89 93 80 80 75 66 75 77 76 45 38 40 41 41 37 31 29 20 17 15 12 19 17 22 32 34 17 15 358 344 337 338 336 333 331 318 312 315 315 325 30 43 81
63 79 58 86 99 101 90 87 91 89 80 71 75 71 70 58 46 42 39 41 37 31 23 19 14 15 10 14 14 21 26 30 40 23 4 334 321 316 320 315 320 309 305 298 305 316 314 292 165
46 90 98 85 99 98 90 74 103 84 67 73 83 76 67 64 60 57 49 44 46 34 29 22 20 16 22 18 19 29 30 27 24 19 11 6 356 331 319 314 308 302 311 310 313 306 306 296 240
96 78 93 92 98 90 81 90 78 84 102 103 88 83 78 69 63 64 61 53 47 44 33 24 21 27 27 28 33 29 29 27 23 21 16 11 12 360 353 346 326 295 290 303 309 310 302 286 278
92 96 91 98 90 91 92 81 93 88 104 101 97 88 87 86 79 70 70 59 53 48 35 30 31 31 25 33 27 26 27 26 21 22 17 16 9 359 347 344 4 345 308 296 294 294 298 301 301
121 104 102 102 94 83 95 68 93 85 116 94 88 82 77 79 78 75 64 57 51 48 38 31 37 38 36 35 29 28 24 19 24 23 17 15 19 3 8 1 357 5 355 345 313 288 279 283 286
113 106 95 62 90 113 67 48 99 135 107 94 87 83 75 61 58 60 64 60 50 45 40 33 32 39 44 38 33 31 30 28 26 19 17 18 18 14 14 13 7 355 338 340 1 2 314 291 291
106 65 96 165 177 17 91 142 161 151 117 106 102 95 86 65 54 49 53 59 47 46 43 38 32 37 43 43 37 33 30 32 27 22 19 19 18 17 17 14 5 352 351 337 343 357 348 6 356
25 115 137 200 29 138 99 148 198 202 151 128 131 126 113 97 62 42 50 57 50 43 42 42 34 33 39 43 42 38 32 27 21 23 21 16 18 17 18 13 3 357 8 13 6 331 316 313 353
151 117 145 164 10 66 111 152 168 185 182 146 156 159 145 133 118 75 61 60 58 45 46 44 41 32 30 41 43 37 34 27 20 21 20 16 14 15 16 14 8 4 10 14 11 0 342 283 289
121 118 120 69 52 92 136 147 173 181 175 160 170 166 159 153 165 143 78 61 69 49 49 37 41 27 38 33 24 20 30 22 22 18 18 18 15 14 19 16 13 9 16 15 13 358 4 353 7
121 125 109 96 30 99 141 158 190 195 204 187 173 184 185 188 182 182 132 89 71 74 56 42 37 35 37 40 27 22 3 5 7 12 14 18 16 16 21 17 16 17 22 22 13 12 2 349 12
83 143 154 151 91 62 115 261 205 221 235 211 207 196 185 175 173 184 183 161 146 110 115 84 56 54 43 42 44 35 15 351 5 8 10 7 15 16 19 17 19 21 27 17 12 9 13 354 343
117 158 142 139 119 149 170 288 223 212 214 217 209 203 183 172 173 184 191 184 171 176 272 297 14 60 59 42 55 49 41 30 3 1 358 5 10 14 15 17 20 24 22 23 14 14 13 1 353
136 110 125 120 96 126 189 284 249 189 218 215 210 207 197 182 177 186 196 203 199 193 205 239 282 323 18 52 66 62 48 28 354 3 9 7 4 11 13 12 16 22 27 22 19 14 15 16 2
135 89 58 55 68 276 209 196 264 183 222 205 199 202 193 181 185 196 204 218 226 217 222 231 240 249 259 249 152 84 50 13 8 3 6 1 359 359 9 9 11 17 17 21 21 17 15 9 7
62 118 117 240 201 238 163 187 257 232 242 201 192 192 192 187 187 197 199 206 223 222 223 227 237 251 246 245 245 232 237 295 343 342 342 351 353 350 353 359 5 8 13 18 17 17 12 8 10
137 178 182 249 216 265 151 230 253 292 282 201 178 179 183 191 199 211 212 212 225 233 239 225 229 239 236 245 248 242 240 247 264 281 300 315 324 327 331 345 356 359 2 10 12 15 13 5 4
169 208 126 110 56 274 234 286 287 36 115 160 167 171 191 202 210 221 227 228 231 236 244 239 238 242 239 240 245 246 247 242 249 259 264 277 294 308 320 329 336 345 348 354 4 11 9 10 7
143 131 134 25 241 256 274 272 250 210 182 170 171 188 202 215 226 234 238 240 242 244 252 251 247 249 248 246 241 241 245 247 250 253 259 257 266 274 292 294 304 323 325 323 347 356 358 7 6
144 170 81 112 163 236 287 261 212 228 196 185 193 200 207 219 228 233 241 250 258 264 263 270 267 261 259 250 248 245 247 249 251 251 257 257 257 259 264 265 268 280 297 292 284 321 337 358 359
160 175 165 198 222 169 175 277 333 279 224 200 207 218 238 244 251 273 298 307 305 303 302 294 287 281 276 287 276 259 255 252 252 253 253 253 252 252 255 262 258 261 268 274 264 268 286 322 341